Glendive, MT

6:32 AM MST on December 16, 2019 (GMT -0700)
Dawson Community

Weather History for KGDV - October, 2019

Change the Weather History Date:

Sunday, October 13, 2019

  Actual Average Record
Temperature  
Mean Temperature 36 °F 49 °F  
Max Temperature 53 °F 62 °F 75 °F (1996)
Min Temperature 18 °F 36 °F 16 °F (2009)
Degree Days  
Heating Degree Days 29 16  
Month to date heating degree days 314 175  
Year to date heating degree days 6181 4574  
Since 1 July heating degree days 615 282  
Cooling Degree Days 0 0  
Month to date cooling degree days 0 0  
Year to date cooling degree days 465 382  
Since 1 July cooling degree days 465 382  
Moisture  
Dew Point 21 °F    
Average Humidity 62    
Maximum Humidity 89    
Minimum Humidity 26    
Precipitation  
Precipitation 0.00 in 0.04 in 2.65 in (2006)
Month to date precipitation 0.40 0.56  
Year to date precipitation 17.57 12.22  
Sea Level Pressure  
Sea Level Pressure 29.97 in    
Wind  
Wind Speed 6 mph (WNW)    
Max Wind Speed 9 mph    
Max Gust Speed -    
Visibility 10 miles    
Events      
T = Trace of Precipitation, MM = Missing Value Source: NWS Daily Summary

Daily Weather History Graph

Daily Weather History Graph

Search for Another Location

Airport or City:

Astronomy

Oct. 13, 2019 Rise Set
Actual Time 7:14 AM MDT 6:15 PM MDT
Civil Twilight 6:43 AM MDT 6:46 PM MDT
Nautical Twilight 6:08 AM MDT 7:21 PM MDT
Astronomical Twilight 5:32 AM MDT 7:57 PM MDT
Moon 6:42 PM MDT (10/13) 6:45 AM MDT (10/13)
Length of Visible Light 12h 02m
Length of Day
11h 01m
Full, 100% of the Moon is Illuminated
Oct 13
Full
Oct 13
Full
Oct 21
Last Quarter
Oct 27
New
Nov 4
First Quarter

Hourly Weather History & Observations

Time (MDT) Temp. Windchill Dew Point Humidity Pressure Visibility Wind Dir Wind Speed Gust Speed Precip Events Conditions
12:56 AM 24.1 °F 15.2 °F 19.9 °F 84% 29.98 in 10.0 mi WNW 8.1 mph - N/A   Clear
1:56 AM 25.0 °F 15.5 °F 19.9 °F 81% 29.99 in 10.0 mi WNW 9.2 mph - N/A   Clear
2:56 AM 19.9 °F 11.1 °F 17.1 °F 89% 29.99 in 10.0 mi WNW 6.9 mph - N/A   Clear
3:56 AM 19.9 °F 14.9 °F 17.1 °F 89% 29.99 in 10.0 mi NW 3.5 mph - N/A   Clear
4:56 AM 19.9 °F 10.1 °F 17.1 °F 89% 30.00 in 10.0 mi WNW 8.1 mph - N/A   Clear
5:56 AM 21.0 °F 10.6 °F 18.0 °F 88% 30.01 in 10.0 mi WNW 9.2 mph - N/A   Clear
6:56 AM 21.9 °F 14.5 °F 18.0 °F 85% 30.02 in 10.0 mi NW 5.8 mph - N/A   Clear
7:56 AM 24.1 °F 18.2 °F 19.9 °F 84% 30.03 in 10.0 mi North 4.6 mph - N/A   Clear
8:56 AM 33.1 °F 30.0 °F 26.1 °F 75% 30.02 in 10.0 mi SSW 3.5 mph - N/A   Clear
9:56 AM 37.9 °F 34.4 °F 26.1 °F 62% 30.02 in 10.0 mi South 4.6 mph - N/A   Clear
10:56 AM 42.1 °F 40.2 °F 25.0 °F 51% 30.01 in 10.0 mi Variable 3.5 mph - N/A   Clear
11:56 AM 46.9 °F - 26.1 °F 44% 30.00 in 10.0 mi Variable 6.9 mph - N/A   Clear
12:56 PM 50.0 °F - 17.1 °F 27% 29.98 in 10.0 mi Calm Calm - N/A   Clear
1:56 PM 50.0 °F - 16.0 °F 26% 29.96 in 10.0 mi Calm Calm - N/A   Clear
2:56 PM 51.1 °F - 24.1 °F 35% 29.95 in 10.0 mi Variable 3.5 mph - N/A   Clear
3:56 PM 51.1 °F - 26.1 °F 38% 29.94 in 10.0 mi SE 6.9 mph - N/A   Clear
4:56 PM 51.1 °F - 25.0 °F 36% 29.94 in 10.0 mi SSE 8.1 mph - N/A   Clear
5:56 PM 46.9 °F - 24.1 °F 41% 29.95 in 10.0 mi SSE 5.8 mph - N/A   Clear
8:56 PM 37.9 °F - 19.9 °F 48% 29.92 in 10.0 mi Calm Calm - N/A   Clear
9:56 PM 36.0 °F - 21.9 °F 57% 29.91 in 10.0 mi Calm Calm - N/A   Clear
10:56 PM 32.0 °F 28.7 °F 23.0 °F 69% 29.90 in 10.0 mi ENE 3.5 mph - N/A   Clear
11:56 PM 30.9 °F 25.2 °F 23.0 °F 72% 29.88 in 10.0 mi NE 5.8 mph - N/A   Clear